Location: Conway
(43.9790°N, 71.1210°W)
Time: 16:58:31
(UTC-04:00)

N. Korean satellite - Visible Passes

Search period start: 15 October 2019 00:00
Search period end: 25 October 2019 00:00
Orbit: 455 x 508 km, 97.2° (Epoch: 14 October)

Date Brightness Start Highest point End Pass type
(mag) Time Alt. Az. Time Alt. Az. Time Alt. Az.
15 Oct 9.1 06:05:56 10° NE 06:09:01 27° E 06:12:09 10° SSE visible
16 Oct 10.1 05:41:36 10° ENE 05:43:35 14° E 05:45:34 10° SE visible
17 Oct 10.4 19:00:53 10° WSW 19:02:07 12° W 19:03:22 10° WNW visible
18 Oct 7.9 06:23:07 10° NNE 06:26:36 45° E 06:30:07 10° S visible
18 Oct 9.4 18:33:51 10° SSW 18:36:38 23° W 18:39:27 10° NW visible
19 Oct 9.4 05:58:18 10° NE 06:01:13 23° E 06:04:08 10° SSE visible
20 Oct 10.4 05:34:23 10° ENE 05:35:43 12° E 05:37:04 10° ESE visible
21 Oct 10.1 18:52:16 10° SW 18:54:13 14° W 18:56:11 10° WNW visible
22 Oct 8.4 06:15:22 10° NNE 06:18:46 37° E 06:22:12 10° SSE visible
22 Oct 8.9 18:25:44 10° SSW 18:28:44 29° W 18:31:48 10° NW visible
23 Oct 9.8 05:50:41 10° NE 05:53:21 19° E 05:56:01 10° SE visible
